Time,TemperatureF,DewpointF,PressureIn,WindDirection,WindDirectionDegrees,WindSpeedMPH,WindSpeedGustMPH,Humidity,HourlyPrecipIn,Conditions,Clouds,dailyrainin,SoftwareType,DateUTC
2013-02-16 00:00:00,24.0,20.7,30.05,SW,231,0.0,0.0,87,0.00,,---,0.01,VWS V14.01,2013-02-16 05:00:00,
2013-02-16 00:05:00,24.0,21.0,30.05,SW,231,0.0,0.0,88,0.00,,---,0.00,VWS V14.01,2013-02-16 05:05:00,
2013-02-16 00:10:00,23.9,20.9,30.05,SW,231,0.0,0.0,88,0.00,,---,0.00,VWS V14.01,2013-02-16 05:10:00,
2013-02-16 00:15:00,24.0,21.0,30.05,SW,231,0.0,0.0,88,0.00,,---,0.00,VWS V14.01,2013-02-16 05:15:00,
2013-02-16 00:20:00,23.9,20.9,30.04,SW,231,0.0,0.0,88,0.00,,---,0.00,VWS V14.01,2013-02-16 05:20:00,
2013-02-16 00:23:00,23.9,20.9,30.04,SW,231,0.0,0.0,88,0.00,,---,0.00,VWS V14.01,2013-02-16 05:23:00,
2013-02-16 00:28:00,23.9,20.9,30.04,SW,231,0.0,0.0,88,0.00,,---,0.00,VWS V14.01,2013-02-16 05:28:00,
2013-02-16 00:33:00,23.8,20.8,30.03,SW,231,0.0,0.0,88,0.00,,---,0.00,VWS V14.01,2013-02-16 05:33:00,
2013-02-16 00:38:00,23.8,21.0,30.03,SW,231,0.0,0.0,89,0.00,,---,0.00,VWS V14.01,2013-02-16 05:38:00,
2013-02-16 00:43:00,23.8,21.0,30.03,SW,231,0.0,0.0,89,0.00,,---,0.00,VWS V14.01,2013-02-16 05:43:00,
2013-02-16 00:48:00,23.8,21.0,30.03,SW,231,0.0,0.0,89,0.00,,---,0.00,VWS V14.01,2013-02-16 05:48:00,
2013-02-16 00:53:00,23.7,20.7,30.03,SW,231,0.0,0.0,88,0.00,,---,0.00,VWS V14.01,2013-02-16 05:53:00,
2013-02-16 00:58:00,23.7,20.7,30.03,SW,231,0.0,0.0,88,0.00,,---,0.00,VWS V14.01,2013-02-16 05:58:00,
2013-02-16 01:03:00,23.6,20.6,30.03,SW,231,0.0,0.0,88,0.00,,---,0.00,VWS V14.01,2013-02-16 06:03:00,
2013-02-16 01:08:00,23.6,20.8,30.03,SW,231,0.0,0.0,89,0.00,,---,0.00,VWS V14.01,2013-02-16 06:08:00,
2013-02-16 01:13:00,23.6,20.8,30.03,SW,231,0.0,0.0,89,0.00,,---,0.00,VWS V14.01,2013-02-16 06:13:00,
2013-02-16 01:18:00,23.6,20.8,30.03,SW,231,0.0,1.0,89,0.00,,---,0.00,VWS V14.01,2013-02-16 06:18:00,
2013-02-16 01:23:00,23.6,20.8,30.03,SW,231,0.0,0.0,89,0.00,,---,0.00,VWS V14.01,2013-02-16 06:23:00,
2013-02-16 01:28:00,23.7,20.9,30.03,SW,231,0.0,0.0,89,0.00,,---,0.00,VWS V14.01,2013-02-16 06:28:00,
2013-02-16 01:33:00,23.7,20.9,30.02,SW,231,0.0,0.0,89,0.00,,---,0.00,VWS V14.01,2013-02-16 06:33:00,
2013-02-16 01:38:00,23.7,20.9,30.02,SW,231,0.0,0.0,89,0.00,,---,0.00,VWS V14.01,2013-02-16 06:38:00,
2013-02-16 01:43:00,23.7,20.9,30.02,SW,231,0.0,0.0,89,0.00,,---,0.00,VWS V14.01,2013-02-16 06:43:00,
2013-02-16 01:48:00,23.7,20.9,30.02,SW,231,0.0,0.0,89,0.00,,---,0.00,VWS V14.01,2013-02-16 06:48:00,
2013-02-16 01:52:00,23.8,21.3,30.02,SW,231,0.0,0.0,90,0.00,,---,0.00,VWS V14.01,2013-02-16 06:52:00,
2013-02-16 01:57:00,23.8,21.3,30.02,SW,231,0.0,0.0,90,0.00,,---,0.00,VWS V14.01,2013-02-16 06:57:00,
2013-02-16 02:02:00,23.8,21.3,30.02,SW,231,0.0,0.0,90,0.00,,---,0.00,VWS V14.01,2013-02-16 07:02:00,
2013-02-16 02:07:00,23.8,21.0,30.02,SW,231,0.0,0.0,89,0.00,,---,0.00,VWS V14.01,2013-02-16 07:07:00,
2013-02-16 02:12:00,23.8,21.3,30.02,SW,231,0.0,0.0,90,0.00,,---,0.00,VWS V14.01,2013-02-16 07:12:00,
2013-02-16 02:17:00,23.9,21.4,30.01,SW,231,0.0,0.0,90,0.00,,---,0.00,VWS V14.01,2013-02-16 07:17:00,
2013-02-16 02:22:00,23.9,21.4,30.01,SW,231,0.0,0.0,90,0.00,,---,0.00,VWS V14.01,2013-02-16 07:22:00,
2013-02-16 02:27:00,23.9,21.1,30.01,SW,231,0.0,0.0,89,0.00,,---,0.00,VWS V14.01,2013-02-16 07:27:00,
2013-02-16 02:32:00,24.0,21.2,30.01,SW,231,0.0,0.0,89,0.00,,---,0.00,VWS V14.01,2013-02-16 07:32:00,
2013-02-16 02:37:00,24.0,21.2,30.01,SW,231,0.0,0.0,89,0.00,,---,0.00,VWS V14.01,2013-02-16 07:37:00,
2013-02-16 02:42:00,24.0,21.2,30.01,SW,231,0.0,0.0,89,0.00,,---,0.00,VWS V14.01,2013-02-16 07:42:00,
2013-02-16 02:47:00,24.0,21.0,30.00,SW,231,0.0,0.0,88,0.00,,---,0.00,VWS V14.01,2013-02-16 07:47:00,
2013-02-16 02:52:00,24.1,21.1,30.00,SW,231,0.0,0.0,88,0.00,,---,0.00,VWS V14.01,2013-02-16 07:52:00,
2013-02-16 02:57:00,24.1,21.1,30.00,SW,231,0.0,0.0,88,0.00,,---,0.00,VWS V14.01,2013-02-16 07:57:00,
2013-02-16 03:02:00,24.1,21.1,30.00,SW,231,0.0,0.0,88,0.00,,---,0.00,VWS V14.01,2013-02-16 08:02:00,
2013-02-16 03:07:00,24.1,20.8,30.00,SW,231,0.0,0.0,87,0.00,,---,0.00,VWS V14.01,2013-02-16 08:07:00,
2013-02-16 03:12:00,24.0,20.7,30.00,SW,231,0.0,0.0,87,0.00,,---,0.00,VWS V14.01,2013-02-16 08:12:00,
2013-02-16 03:17:00,24.0,20.7,30.00,SW,231,0.0,0.0,87,0.00,,---,0.00,VWS V14.01,2013-02-16 08:17:00,
2013-02-16 03:22:00,23.9,20.6,30.00,SW,231,0.0,0.0,87,0.00,,---,0.00,VWS V14.01,2013-02-16 08:22:00,
2013-02-16 03:27:00,23.8,20.5,30.00,SW,231,0.0,0.0,87,0.00,,---,0.00,VWS V14.01,2013-02-16 08:27:00,
2013-02-16 03:32:00,23.6,20.0,29.99,SW,231,0.0,1.0,86,0.00,,---,0.00,VWS V14.01,2013-02-16 08:32:00,
2013-02-16 03:37:00,23.5,19.9,29.99,SW,231,0.0,0.0,86,0.00,,---,0.00,VWS V14.01,2013-02-16 08:37:00,
2013-02-16 03:42:00,23.4,19.6,29.99,SW,231,0.0,0.0,85,0.00,,---,0.00,VWS V14.01,2013-02-16 08:42:00,
2013-02-16 03:47:00,23.3,19.5,30.00,SW,231,0.0,1.0,85,0.00,,---,0.00,VWS V14.01,2013-02-16 08:47:00,
2013-02-16 03:52:00,23.2,19.6,30.00,SW,231,0.0,0.0,86,0.00,,---,0.00,VWS V14.01,2013-02-16 08:52:00,
2013-02-16 03:57:00,23.2,19.6,30.00,SW,231,0.0,0.0,86,0.00,,---,0.00,VWS V14.01,2013-02-16 08:57:00,
2013-02-16 04:02:00,23.2,19.6,29.99,SW,231,0.0,0.0,86,0.00,,---,0.00,VWS V14.01,2013-02-16 09:02:00,
2013-02-16 04:07:00,23.1,19.5,29.99,SW,231,0.0,0.0,86,0.00,,---,0.00,VWS V14.01,2013-02-16 09:07:00,
2013-02-16 04:12:00,23.0,19.5,29.99,SW,231,0.0,0.0,86,0.00,,---,0.00,VWS V14.01,2013-02-16 09:12:00,
2013-02-16 04:17:00,22.8,19.2,29.99,SW,231,0.0,0.0,86,0.00,,---,0.00,VWS V14.01,2013-02-16 09:17:00,
2013-02-16 04:22:00,22.6,19.3,29.99,SW,231,0.0,0.0,87,0.00,,---,0.00,VWS V14.01,2013-02-16 09:22:00,
2013-02-16 04:27:00,22.4,19.1,29.99,SW,231,0.0,0.0,87,0.00,,---,0.00,VWS V14.01,2013-02-16 09:27:00,
2013-02-16 04:32:00,22.2,19.2,29.99,SW,231,0.0,0.0,88,0.00,,---,0.00,VWS V14.01,2013-02-16 09:32:00,
2013-02-16 04:37:00,22.0,19.0,29.99,SW,231,0.0,0.0,88,0.00,,---,0.00,VWS V14.01,2013-02-16 09:37:00,
2013-02-16 04:42:00,21.9,19.2,29.99,SW,231,0.0,0.0,89,0.00,,---,0.00,VWS V14.01,2013-02-16 09:42:00,
2013-02-16 04:47:00,22.0,19.5,29.99,SW,231,0.0,0.0,90,0.00,,---,0.00,VWS V14.01,2013-02-16 09:47:00,
2013-02-16 04:52:00,22.1,19.9,29.99,SW,231,0.0,1.0,91,0.00,,---,0.00,VWS V14.01,2013-02-16 09:52:00,
2013-02-16 04:57:00,22.2,20.0,29.99,SW,231,0.0,0.0,91,0.00,,---,0.00,VWS V14.01,2013-02-16 09:57:00,
2013-02-16 05:02:00,22.4,20.4,29.99,SW,231,0.0,0.0,92,0.00,,---,0.00,VWS V14.01,2013-02-16 10:02:00,
2013-02-16 05:07:00,22.4,20.4,29.99,West,274,0.0,0.0,92,0.00,,---,0.00,VWS V14.01,2013-02-16 10:07:00,
2013-02-16 05:12:00,22.4,20.4,29.99,West,276,2.0,2.0,92,0.00,,---,0.00,VWS V14.01,2013-02-16 10:12:00,
2013-02-16 05:17:00,22.4,20.4,29.99,West,264,0.0,3.0,92,0.00,,---,0.00,VWS V14.01,2013-02-16 10:17:00,
2013-02-16 05:22:00,22.4,20.4,29.99,West,264,0.0,0.0,92,0.00,,---,0.00,VWS V14.01,2013-02-16 10:22:00,
2013-02-16 05:27:00,22.5,20.5,29.99,West,264,1.0,1.0,92,0.00,,---,0.00,VWS V14.01,2013-02-16 10:27:00,
2013-02-16 05:32:00,22.4,20.7,29.99,West,264,0.0,1.0,93,0.00,,---,0.00,VWS V14.01,2013-02-16 10:32:00,
2013-02-16 05:37:00,22.4,20.7,29.99,WSW,250,0.0,5.0,93,0.00,,---,0.00,VWS V14.01,2013-02-16 10:37:00,
2013-02-16 05:42:00,22.3,20.3,29.99,WSW,250,0.0,0.0,92,0.00,,---,0.00,VWS V14.01,2013-02-16 10:42:00,
2013-02-16 05:47:00,22.2,20.2,29.99,WSW,255,0.0,2.0,92,0.00,,---,0.00,VWS V14.01,2013-02-16 10:47:00,
2013-02-16 05:52:00,22.1,20.1,29.99,WSW,255,0.0,1.0,92,0.00,,---,0.00,VWS V14.01,2013-02-16 10:52:00,
2013-02-16 05:57:00,22.0,20.0,29.99,WSW,256,0.0,0.0,92,0.00,,---,0.00,VWS V14.01,2013-02-16 10:57:00,
2013-02-16 06:02:00,22.0,20.0,29.99,WSW,256,0.0,0.0,92,0.00,,---,0.00,VWS V14.01,2013-02-16 11:02:00,
2013-02-16 06:07:00,22.0,20.0,29.99,WSW,256,0.0,1.0,92,0.00,,---,0.00,VWS V14.01,2013-02-16 11:07:00,
2013-02-16 06:12:00,21.9,19.9,29.99,WSW,256,0.0,1.0,92,0.00,,---,0.00,VWS V14.01,2013-02-16 11:12:00,
2013-02-16 06:17:00,21.9,19.9,29.99,WSW,256,0.0,0.0,92,0.00,,---,0.00,VWS V14.01,2013-02-16 11:17:00,
2013-02-16 06:22:00,21.9,19.9,29.99,WSW,256,0.0,2.0,92,0.00,,---,0.00,VWS V14.01,2013-02-16 11:22:00,
2013-02-16 06:27:00,21.9,19.9,29.99,WSW,256,0.0,0.0,92,0.00,,---,0.00,VWS V14.01,2013-02-16 11:27:00,
2013-02-16 06:32:00,21.9,19.9,29.99,West,259,0.0,1.0,92,0.00,,---,0.00,VWS V14.01,2013-02-16 11:32:00,
2013-02-16 06:37:00,21.8,19.8,29.99,WNW,295,0.0,1.0,92,0.00,,---,0.00,VWS V14.01,2013-02-16 11:37:00,
2013-02-16 06:42:00,21.8,19.8,29.99,WNW,295,0.0,2.0,92,0.00,,---,0.00,VWS V14.01,2013-02-16 11:42:00,
2013-02-16 06:47:00,21.7,19.7,29.99,WNW,295,0.0,1.0,92,0.00,,---,0.00,VWS V14.01,2013-02-16 11:47:00,
2013-02-16 06:52:00,21.7,19.7,29.99,WNW,295,0.0,1.0,92,0.00,,---,0.00,VWS V14.01,2013-02-16 11:52:00,
2013-02-16 06:57:00,21.7,19.7,29.99,WNW,295,0.0,0.0,92,0.00,,---,0.00,VWS V14.01,2013-02-16 11:57:00,
2013-02-16 07:02:00,21.6,19.6,29.99,West,270,4.0,5.0,92,0.00,,---,0.00,VWS V14.01,2013-02-16 12:02:00,
2013-02-16 07:07:00,21.5,19.3,29.99,West,271,0.0,3.0,91,0.00,,---,0.00,VWS V14.01,2013-02-16 12:07:00,
2013-02-16 07:12:00,21.3,19.1,29.99,West,269,0.0,2.0,91,0.00,,---,0.00,VWS V14.01,2013-02-16 12:12:00,
2013-02-16 07:17:00,21.2,18.7,30.00,West,278,0.0,3.0,90,0.00,,---,0.00,VWS V14.01,2013-02-16 12:17:00,
2013-02-16 07:22:00,21.2,18.7,30.00,West,275,0.0,0.0,90,0.00,,---,0.00,VWS V14.01,2013-02-16 12:22:00,
2013-02-16 07:27:00,21.1,18.6,30.00,West,276,0.0,0.0,90,0.00,,---,0.00,VWS V14.01,2013-02-16 12:27:00,
2013-02-16 07:32:00,21.1,18.6,30.00,West,276,0.0,2.0,90,0.00,,---,0.00,VWS V14.01,2013-02-16 12:32:00,
2013-02-16 07:37:00,21.1,18.6,30.00,West,276,0.0,0.0,90,0.00,,---,0.00,VWS V14.01,2013-02-16 12:37:00,
2013-02-16 07:42:00,21.1,18.4,30.00,West,276,0.0,1.0,89,0.00,,---,0.00,VWS V14.01,2013-02-16 12:42:00,
2013-02-16 07:47:00,21.0,18.3,30.00,West,276,0.0,0.0,89,0.00,,---,0.00,VWS V14.01,2013-02-16 12:47:00,
2013-02-16 07:52:00,20.9,18.2,30.00,West,271,0.0,0.0,89,0.00,,---,0.00,VWS V14.01,2013-02-16 12:52:00,
2013-02-16 07:57:00,20.8,17.8,30.00,West,271,1.0,2.0,88,0.00,,---,0.00,VWS V14.01,2013-02-16 12:57:00,
2013-02-16 08:02:00,20.7,17.5,30.00,West,262,0.0,0.0,87,0.00,,---,0.00,VWS V14.01,2013-02-16 13:02:00,
2013-02-16 08:07:00,20.6,17.1,30.00,West,262,0.0,0.0,86,0.00,,---,0.00,VWS V14.01,2013-02-16 13:07:00,
2013-02-16 08:12:00,20.5,17.0,30.00,West,262,0.0,1.0,86,0.00,,---,0.00,VWS V14.01,2013-02-16 13:12:00,
2013-02-16 08:17:00,20.4,16.9,30.00,West,262,0.0,0.0,86,0.00,,---,0.00,VWS V14.01,2013-02-16 13:17:00,
2013-02-16 08:22:00,20.4,16.9,30.00,West,262,0.0,0.0,86,0.00,,---,0.00,VWS V14.01,2013-02-16 13:22:00,
2013-02-16 08:27:00,20.4,16.9,30.00,West,262,0.0,0.0,86,0.00,,---,0.00,VWS V14.01,2013-02-16 13:27:00,
2013-02-16 08:32:00,20.4,16.9,30.00,West,262,0.0,0.0,86,0.00,,---,0.00,VWS V14.01,2013-02-16 13:32:00,
2013-02-16 08:37:00,20.4,16.9,30.00,West,262,3.0,3.0,86,0.00,,---,0.00,VWS V14.01,2013-02-16 13:37:00,
2013-02-16 08:42:00,20.4,16.9,30.00,West,262,0.0,3.0,86,0.00,,---,0.00,VWS V14.01,2013-02-16 13:42:00,
2013-02-16 08:47:00,20.4,16.9,30.00,West,262,3.0,3.0,86,0.00,,---,0.00,VWS V14.01,2013-02-16 13:47:00,
2013-02-16 08:52:00,20.3,16.8,30.00,West,262,0.0,1.0,86,0.00,,---,0.00,VWS V14.01,2013-02-16 13:52:00,
2013-02-16 08:57:00,20.2,16.4,30.00,West,274,0.0,3.0,85,0.00,,---,0.00,VWS V14.01,2013-02-16 13:57:00,
2013-02-16 09:02:00,20.0,16.2,30.01,West,271,2.0,2.0,85,0.00,,---,0.00,VWS V14.01,2013-02-16 14:02:00,
2013-02-16 09:07:00,19.8,16.0,30.01,WNW,288,1.0,3.0,85,0.00,,---,0.00,VWS V14.01,2013-02-16 14:07:00,
2013-02-16 09:12:00,19.9,16.1,30.01,WNW,282,2.0,2.0,85,0.00,,---,0.00,VWS V14.01,2013-02-16 14:12:00,
2013-02-16 09:17:00,20.0,16.5,30.01,WSW,256,4.0,5.0,86,0.00,,---,0.00,VWS V14.01,2013-02-16 14:17:00,
2013-02-16 09:22:00,20.4,17.2,30.01,West,270,4.0,4.0,87,0.00,,---,0.00,VWS V14.01,2013-02-16 14:22:00,
2013-02-16 09:27:00,20.9,17.4,30.01,WSW,257,3.0,3.0,86,0.00,,---,0.00,VWS V14.01,2013-02-16 14:27:00,
2013-02-16 09:32:00,21.2,17.4,30.00,West,266,2.0,4.0,85,0.00,,---,0.00,VWS V14.01,2013-02-16 14:32:00,
2013-02-16 09:37:00,21.3,17.5,30.00,WNW,283,2.0,3.0,85,0.00,,---,0.00,VWS V14.01,2013-02-16 14:37:00,
2013-02-16 09:42:00,21.4,17.3,30.00,WNW,289,3.0,6.0,84,0.00,,---,0.00,VWS V14.01,2013-02-16 14:42:00,
2013-02-16 09:47:00,21.5,17.4,30.00,WSW,252,4.0,5.0,84,0.00,,---,0.00,VWS V14.01,2013-02-16 14:47:00,
2013-02-16 09:52:00,21.7,17.3,30.00,WNW,294,0.0,5.0,83,0.00,,---,0.00,VWS V14.01,2013-02-16 14:52:00,
2013-02-16 09:57:00,22.1,18.0,30.00,West,267,1.0,3.0,84,0.00,,---,0.00,VWS V14.01,2013-02-16 14:57:00,
2013-02-16 10:02:00,22.3,18.2,30.00,West,274,2.0,3.0,84,0.00,,---,0.00,VWS V14.01,2013-02-16 15:02:00,
2013-02-16 10:07:00,22.4,18.6,30.00,WSW,245,0.0,4.0,85,0.00,,---,0.00,VWS V14.01,2013-02-16 15:07:00,
2013-02-16 10:12:00,22.4,18.9,30.00,West,275,2.0,4.0,86,0.00,,---,0.00,VWS V14.01,2013-02-16 15:12:00,
2013-02-16 10:17:00,22.2,18.9,30.00,West,276,3.0,3.0,87,0.00,,---,0.00,VWS V14.01,2013-02-16 15:17:00,
2013-02-16 10:22:00,21.9,18.9,30.00,WNW,285,3.0,9.0,88,0.00,,---,0.00,VWS V14.01,2013-02-16 15:22:00,
2013-02-16 10:27:00,21.5,18.8,30.00,WNW,295,4.0,5.0,89,0.00,,---,0.00,VWS V14.01,2013-02-16 15:27:00,
2013-02-16 10:32:00,21.3,18.8,30.01,West,262,3.0,3.0,90,0.00,,---,0.00,VWS V14.01,2013-02-16 15:32:00,
2013-02-16 10:37:00,21.1,18.9,30.01,SW,230,1.0,2.0,91,0.00,,---,0.00,VWS V14.01,2013-02-16 15:37:00,
2013-02-16 10:42:00,21.0,18.8,30.01,West,272,3.0,3.0,91,0.00,,---,0.00,VWS V14.01,2013-02-16 15:42:00,
2013-02-16 10:47:00,20.9,18.7,30.01,West,273,3.0,3.0,91,0.00,,---,0.00,VWS V14.01,2013-02-16 15:47:00,
2013-02-16 10:52:00,20.9,18.7,30.01,WSW,257,1.0,5.0,91,0.00,,---,0.00,VWS V14.01,2013-02-16 15:52:00,
2013-02-16 10:57:00,20.9,18.7,30.01,West,260,0.0,3.0,91,0.00,,---,0.00,VWS V14.01,2013-02-16 15:57:00,
2013-02-16 11:02:00,20.6,18.4,30.01,NW,311,0.0,5.0,91,0.00,,---,0.00,VWS V14.01,2013-02-16 16:02:00,
2013-02-16 11:07:00,20.4,18.2,30.01,WNW,290,0.0,5.0,91,0.00,,---,0.00,VWS V14.01,2013-02-16 16:07:00,
2013-02-16 11:12:00,20.2,18.0,30.01,NW,323,0.0,2.0,91,0.00,,---,0.00,VWS V14.01,2013-02-16 16:12:00,
2013-02-16 11:17:00,20.0,17.8,30.01,WNW,303,1.0,3.0,91,0.00,,---,0.00,VWS V14.01,2013-02-16 16:17:00,
2013-02-16 11:22:00,19.9,17.7,30.01,North,0,2.0,2.0,91,0.00,,---,0.00,VWS V14.01,2013-02-16 16:22:00,
2013-02-16 11:27:00,19.8,17.6,30.01,NW,317,1.0,4.0,91,0.00,,---,0.00,VWS V14.01,2013-02-16 16:27:00,
2013-02-16 11:32:00,20.3,17.6,30.02,NW,314,2.0,2.0,89,0.00,,---,0.00,VWS V14.01,2013-02-16 16:32:00,
2013-02-16 11:37:00,20.9,17.1,30.02,WNW,288,3.0,3.0,85,0.00,,---,0.00,VWS V14.01,2013-02-16 16:37:00,
2013-02-16 11:42:00,21.2,16.3,30.02,WSW,243,3.0,4.0,81,0.00,,---,0.00,VWS V14.01,2013-02-16 16:42:00,
2013-02-16 11:47:00,21.5,16.3,30.02,West,278,6.0,6.0,80,0.00,,---,0.00,VWS V14.01,2013-02-16 16:47:00,
2013-02-16 11:52:00,21.5,16.0,30.02,WNW,301,2.0,3.0,79,0.00,,---,0.00,VWS V14.01,2013-02-16 16:52:00,
2013-02-16 11:57:00,21.5,15.4,30.02,West,266,4.0,5.0,77,0.00,,---,0.00,VWS V14.01,2013-02-16 16:57:00,
2013-02-16 12:02:00,21.7,15.3,30.02,NW,307,0.0,1.0,76,0.00,,---,0.00,VWS V14.01,2013-02-16 17:02:00,
2013-02-16 12:07:00,21.8,15.1,30.02,WNW,299,4.0,4.0,75,0.00,,---,0.00,VWS V14.01,2013-02-16 17:07:00,
2013-02-16 12:12:00,21.5,14.8,30.02,NW,322,2.0,3.0,75,0.00,,---,0.00,VWS V14.01,2013-02-16 17:12:00,
2013-02-16 12:17:00,21.2,13.9,30.02,SW,235,3.0,6.0,73,0.00,,---,0.00,VWS V14.01,2013-02-16 17:17:00,
2013-02-16 12:22:00,21.3,14.0,30.02,WNW,290,0.0,2.0,73,0.00,,---,0.00,VWS V14.01,2013-02-16 17:22:00,
2013-02-16 12:27:00,22.0,14.7,30.02,WNW,302,0.0,2.0,73,0.00,,---,0.00,VWS V14.01,2013-02-16 17:27:00,
2013-02-16 12:32:00,22.1,15.4,30.01,WNW,288,3.0,4.0,75,0.00,,---,0.00,VWS V14.01,2013-02-16 17:32:00,
2013-02-16 12:37:00,22.0,14.7,30.01,NW,308,1.0,3.0,73,0.00,,---,0.00,VWS V14.01,2013-02-16 17:37:00,
2013-02-16 12:42:00,21.6,13.7,30.01,WNW,285,1.0,4.0,71,0.00,,---,0.00,VWS V14.01,2013-02-16 17:42:00,
2013-02-16 12:47:00,21.4,13.1,30.01,WNW,292,1.0,4.0,70,0.00,,---,0.00,VWS V14.01,2013-02-16 17:47:00,
2013-02-16 12:52:00,21.5,13.2,30.01,WNW,287,0.0,7.0,70,0.00,,---,0.00,VWS V14.01,2013-02-16 17:52:00,
2013-02-16 12:57:00,21.8,13.2,30.01,NNW,346,1.0,3.0,69,0.00,,---,0.00,VWS V14.01,2013-02-16 17:57:00,
2013-02-16 13:02:00,21.4,12.8,30.01,WNW,302,5.0,5.0,69,0.00,,---,0.00,VWS V14.01,2013-02-16 18:02:00,
2013-02-16 13:07:00,21.1,12.9,30.01,WNW,282,3.0,5.0,70,0.00,,---,0.00,VWS V14.01,2013-02-16 18:07:00,
2013-02-16 13:12:00,21.5,13.9,30.01,WSW,237,5.0,5.0,72,0.00,,---,0.00,VWS V14.01,2013-02-16 18:12:00,
2013-02-16 13:17:00,21.7,14.7,30.01,WSW,252,3.0,6.0,74,0.00,,---,0.00,VWS V14.01,2013-02-16 18:17:00,
2013-02-16 13:22:00,21.2,15.4,30.01,WSW,237,5.0,5.0,78,0.00,,---,0.00,VWS V14.01,2013-02-16 18:22:00,
2013-02-16 13:27:00,20.5,15.6,30.01,WNW,284,3.0,5.0,81,0.00,,---,0.00,VWS V14.01,2013-02-16 18:27:00,
2013-02-16 13:32:00,20.6,16.0,30.01,West,277,2.0,4.0,82,0.00,,---,0.00,VWS V14.01,2013-02-16 18:32:00,
2013-02-16 13:37:00,20.3,14.8,30.01,WNW,285,2.0,5.0,79,0.00,,---,0.00,VWS V14.01,2013-02-16 18:37:00,
2013-02-16 13:42:00,20.3,14.6,30.01,NW,311,0.0,3.0,78,0.00,,---,0.00,VWS V14.01,2013-02-16 18:42:00,
2013-02-16 13:47:00,20.3,14.8,30.01,WNW,283,2.0,4.0,79,0.00,,---,0.00,VWS V14.01,2013-02-16 18:47:00,
2013-02-16 13:52:00,20.7,16.1,30.01,West,266,4.0,6.0,82,0.00,,---,0.00,VWS V14.01,2013-02-16 18:52:00,
2013-02-16 13:57:00,21.1,15.6,30.01,WNW,300,1.0,3.0,79,0.00,,---,0.00,VWS V14.01,2013-02-16 18:57:00,
2013-02-16 14:02:00,21.7,16.2,30.00,WNW,297,1.0,6.0,79,0.00,,---,0.00,VWS V14.01,2013-02-16 19:02:00,
2013-02-16 14:07:00,21.8,15.1,30.00,WSW,243,6.0,6.0,75,0.00,,---,0.00,VWS V14.01,2013-02-16 19:07:00,
2013-02-16 14:12:00,21.5,14.5,30.00,WNW,299,4.0,8.0,74,0.00,,---,0.00,VWS V14.01,2013-02-16 19:12:00,
2013-02-16 14:17:00,21.1,13.5,30.01,NW,309,0.0,4.0,72,0.00,,---,0.00,VWS V14.01,2013-02-16 19:17:00,
2013-02-16 14:22:00,20.7,13.7,30.01,WSW,240,2.0,6.0,74,0.00,,---,0.00,VWS V14.01,2013-02-16 19:22:00,
2013-02-16 14:27:00,20.3,13.4,30.01,West,271,1.0,4.0,74,0.00,,---,0.00,VWS V14.01,2013-02-16 19:27:00,
2013-02-16 14:32:00,20.1,13.8,30.01,West,279,4.0,5.0,76,0.00,,---,0.00,VWS V14.01,2013-02-16 19:32:00,
2013-02-16 14:37:00,20.5,13.9,30.01,NW,311,3.0,6.0,75,0.00,,---,0.00,VWS V14.01,2013-02-16 19:37:00,
2013-02-16 14:42:00,20.9,13.9,30.01,WSW,257,3.0,7.0,74,0.00,,---,0.00,VWS V14.01,2013-02-16 19:42:00,
2013-02-16 14:47:00,20.7,12.8,30.01,West,276,4.0,6.0,71,0.00,,---,0.00,VWS V14.01,2013-02-16 19:47:00,
2013-02-16 14:52:00,20.8,13.2,30.01,WNW,298,1.0,6.0,72,0.00,,---,0.00,VWS V14.01,2013-02-16 19:52:00,
2013-02-16 14:57:00,20.8,13.2,30.01,WSW,258,3.0,4.0,72,0.00,,---,0.00,VWS V14.01,2013-02-16 19:57:00,
2013-02-16 15:02:00,21.4,13.1,30.01,WNW,293,2.0,7.0,70,0.00,,---,0.00,VWS V14.01,2013-02-16 20:02:00,
2013-02-16 15:07:00,21.9,13.6,30.01,NNW,337,3.0,4.0,70,0.00,,---,0.00,VWS V14.01,2013-02-16 20:07:00,
2013-02-16 15:12:00,21.6,13.7,30.01,West,259,3.0,5.0,71,0.00,,---,0.00,VWS V14.01,2013-02-16 20:12:00,
2013-02-16 15:17:00,20.3,12.4,30.01,WNW,295,3.0,9.0,71,0.00,,---,0.00,VWS V14.01,2013-02-16 20:17:00,
2013-02-16 15:22:00,19.4,12.5,30.01,West,278,5.0,5.0,74,0.00,,---,0.00,VWS V14.01,2013-02-16 20:22:00,
2013-02-16 15:27:00,19.1,13.4,30.01,WNW,294,1.0,4.0,78,0.00,,---,0.00,VWS V14.01,2013-02-16 20:27:00,
2013-02-16 15:32:00,19.5,13.2,30.01,West,277,3.0,3.0,76,0.00,,---,0.00,VWS V14.01,2013-02-16 20:32:00,
2013-02-16 15:37:00,19.8,13.2,30.01,West,266,4.0,5.0,75,0.00,,---,0.00,VWS V14.01,2013-02-16 20:37:00,
2013-02-16 15:42:00,19.7,12.5,30.01,WNW,285,4.0,4.0,73,0.00,,---,0.00,VWS V14.01,2013-02-16 20:42:00,
2013-02-16 15:47:00,19.6,12.1,30.01,NW,322,3.0,5.0,72,0.00,,---,0.00,VWS V14.01,2013-02-16 20:47:00,
2013-02-16 15:52:00,19.2,11.4,30.01,WSW,248,4.0,6.0,71,0.00,,---,0.00,VWS V14.01,2013-02-16 20:52:00,
2013-02-16 15:57:00,18.8,11.0,30.01,WNW,290,2.0,3.0,71,0.00,,---,0.00,VWS V14.01,2013-02-16 20:57:00,
2013-02-16 16:02:00,18.8,11.6,30.02,WNW,286,2.0,3.0,73,0.00,,---,0.00,VWS V14.01,2013-02-16 21:02:00,
2013-02-16 16:07:00,19.0,12.4,30.02,West,279,4.0,4.0,75,0.00,,---,0.00,VWS V14.01,2013-02-16 21:07:00,
2013-02-16 16:12:00,19.1,12.2,30.02,West,273,0.0,3.0,74,0.00,,---,0.00,VWS V14.01,2013-02-16 21:12:00,
2013-02-16 16:17:00,19.1,11.9,30.02,WSW,250,1.0,7.0,73,0.00,,---,0.00,VWS V14.01,2013-02-16 21:17:00,
2013-02-16 16:22:00,19.0,11.8,30.02,SW,236,5.0,5.0,73,0.00,,---,0.00,VWS V14.01,2013-02-16 21:22:00,
2013-02-16 16:27:00,18.8,12.2,30.02,WNW,283,2.0,4.0,75,0.00,,---,0.00,VWS V14.01,2013-02-16 21:27:00,
2013-02-16 16:32:00,18.9,12.9,30.03,West,268,0.0,3.0,77,0.00,,---,0.00,VWS V14.01,2013-02-16 21:32:00,
2013-02-16 16:37:00,19.0,13.6,30.03,West,266,4.0,4.0,79,0.00,,---,0.00,VWS V14.01,2013-02-16 21:37:00,
2013-02-16 16:42:00,18.8,13.4,30.03,West,267,0.0,1.0,79,0.00,,---,0.00,VWS V14.01,2013-02-16 21:42:00,
2013-02-16 16:47:00,18.5,12.8,30.03,West,262,3.0,3.0,78,0.00,,---,0.00,VWS V14.01,2013-02-16 21:47:00,
2013-02-16 16:52:00,18.2,13.1,30.03,West,276,1.0,5.0,80,0.00,,---,0.00,VWS V14.01,2013-02-16 21:52:00,
2013-02-16 16:57:00,18.1,12.7,30.03,West,273,3.0,3.0,79,0.00,,---,0.00,VWS V14.01,2013-02-16 21:57:00,
2013-02-16 17:02:00,18.0,12.6,30.03,NW,321,1.0,1.0,79,0.00,,---,0.00,VWS V14.01,2013-02-16 22:02:00,
2013-02-16 17:07:00,18.1,12.7,30.03,WSW,256,2.0,2.0,79,0.00,,---,0.00,VWS V14.01,2013-02-16 22:07:00,
2013-02-16 17:12:00,17.8,12.1,30.03,West,275,3.0,3.0,78,0.00,,---,0.00,VWS V14.01,2013-02-16 22:12:00,
2013-02-16 17:17:00,17.5,11.5,30.03,West,261,1.0,1.0,77,0.00,,---,0.00,VWS V14.01,2013-02-16 22:17:00,
2013-02-16 17:22:00,17.4,11.1,30.03,SSW,210,0.0,0.0,76,0.00,,---,0.00,VWS V14.01,2013-02-16 22:22:00,
2013-02-16 17:27:00,17.3,10.8,30.03,NW,304,1.0,1.0,75,0.00,,---,0.00,VWS V14.01,2013-02-16 22:27:00,
2013-02-16 17:32:00,17.2,10.6,30.03,WNW,286,1.0,2.0,75,0.00,,---,0.00,VWS V14.01,2013-02-16 22:32:00,
2013-02-16 17:37:00,17.1,10.3,30.03,WNW,285,1.0,1.0,74,0.00,,---,0.00,VWS V14.01,2013-02-16 22:37:00,
2013-02-16 17:42:00,17.0,10.2,30.03,WSW,258,1.0,1.0,74,0.00,,---,0.00,VWS V14.01,2013-02-16 22:42:00,
2013-02-16 17:47:00,16.8,10.0,30.03,WSW,258,2.0,2.0,74,0.00,,---,0.00,VWS V14.01,2013-02-16 22:47:00,
2013-02-16 17:52:00,16.7,9.9,30.03,West,260,0.0,0.0,74,0.00,,---,0.00,VWS V14.01,2013-02-16 22:52:00,
2013-02-16 17:57:00,16.6,10.1,30.03,West,260,0.0,0.0,75,0.00,,---,0.00,VWS V14.01,2013-02-16 22:57:00,
2013-02-16 18:02:00,16.5,10.0,30.03,West,260,2.0,2.0,75,0.00,,---,0.00,VWS V14.01,2013-02-16 23:02:00,
2013-02-16 18:07:00,16.4,10.2,30.03,West,260,0.0,0.0,76,0.00,,---,0.00,VWS V14.01,2013-02-16 23:07:00,
2013-02-16 18:12:00,16.2,10.3,30.03,West,260,0.0,0.0,77,0.00,,---,0.00,VWS V14.01,2013-02-16 23:12:00,
2013-02-16 18:17:00,16.1,10.5,30.04,West,260,0.0,0.0,78,0.00,,---,0.00,VWS V14.01,2013-02-16 23:17:00,
2013-02-16 18:22:00,15.9,10.3,30.04,West,260,0.0,0.0,78,0.00,,---,0.00,VWS V14.01,2013-02-16 23:22:00,
2013-02-16 18:27:00,15.8,10.5,30.04,West,260,0.0,0.0,79,0.00,,---,0.00,VWS V14.01,2013-02-16 23:27:00,
2013-02-16 18:32:00,15.5,10.2,30.05,West,260,0.0,0.0,79,0.00,,---,0.00,VWS V14.01,2013-02-16 23:32:00,
2013-02-16 18:37:00,15.4,10.4,30.05,West,260,0.0,0.0,80,0.00,,---,0.00,VWS V14.01,2013-02-16 23:37:00,
2013-02-16 18:42:00,15.2,10.1,30.05,West,260,0.0,0.0,80,0.00,,---,0.00,VWS V14.01,2013-02-16 23:42:00,
2013-02-16 18:47:00,15.1,10.1,30.05,West,260,0.0,0.0,80,0.00,,---,0.00,VWS V14.01,2013-02-16 23:47:00,
2013-02-16 18:52:00,14.9,9.9,30.05,West,260,0.0,0.0,80,0.00,,---,0.00,VWS V14.01,2013-02-16 23:52:00,
2013-02-16 18:57:00,14.8,10.0,30.05,West,260,0.0,0.0,81,0.00,,---,0.00,VWS V14.01,2013-02-16 23:57:00,
2013-02-16 19:02:00,14.6,9.8,30.05,West,260,0.0,0.0,81,0.00,,---,0.00,VWS V14.01,2013-02-17 00:02:00,
2013-02-16 19:07:00,14.5,9.7,30.05,West,260,0.0,0.0,81,0.00,,---,0.00,VWS V14.01,2013-02-17 00:07:00,
2013-02-16 19:12:00,14.4,9.6,30.05,West,260,0.0,0.0,81,0.00,,---,0.00,VWS V14.01,2013-02-17 00:12:00,
2013-02-16 19:17:00,14.3,9.8,30.05,West,260,0.0,0.0,82,0.00,,---,0.00,VWS V14.01,2013-02-17 00:17:00,
2013-02-16 19:22:00,14.2,9.7,30.05,West,260,0.0,0.0,82,0.00,,---,0.00,VWS V14.01,2013-02-17 00:22:00,
2013-02-16 19:27:00,14.1,9.6,30.05,West,260,0.0,0.0,82,0.00,,---,0.00,VWS V14.01,2013-02-17 00:27:00,
2013-02-16 19:32:00,13.9,9.4,30.05,West,260,0.0,0.0,82,0.00,,---,0.00,VWS V14.01,2013-02-17 00:32:00,
2013-02-16 19:37:00,13.7,9.2,30.05,West,260,0.0,0.0,82,0.00,,---,0.00,VWS V14.01,2013-02-17 00:37:00,
2013-02-16 19:42:00,13.5,9.3,30.05,West,260,0.0,0.0,83,0.00,,---,0.00,VWS V14.01,2013-02-17 00:42:00,
2013-02-16 19:47:00,13.4,9.2,30.06,West,260,0.0,0.0,83,0.00,,---,0.00,VWS V14.01,2013-02-17 00:47:00,
2013-02-16 19:52:00,13.2,9.0,30.06,West,260,0.0,0.0,83,0.00,,---,0.00,VWS V14.01,2013-02-17 00:52:00,
2013-02-16 19:57:00,13.0,9.1,30.06,West,260,0.0,0.0,84,0.00,,---,0.00,VWS V14.01,2013-02-17 00:57:00,
2013-02-16 20:02:00,12.8,8.9,30.05,West,260,0.0,0.0,84,0.00,,---,0.00,VWS V14.01,2013-02-17 01:02:00,
2013-02-16 20:07:00,12.7,8.8,30.05,West,260,0.0,0.0,84,0.00,,---,0.00,VWS V14.01,2013-02-17 01:07:00,
2013-02-16 20:12:00,12.5,8.9,30.05,West,260,0.0,0.0,85,0.00,,---,0.00,VWS V14.01,2013-02-17 01:12:00,
2013-02-16 20:17:00,12.3,8.9,30.06,West,260,0.0,0.0,86,0.00,,---,0.00,VWS V14.01,2013-02-17 01:17:00,
2013-02-16 20:22:00,12.2,8.6,30.06,West,260,0.0,0.0,85,0.00,,---,0.00,VWS V14.01,2013-02-17 01:22:00,
2013-02-16 20:27:00,12.0,8.6,30.06,West,260,0.0,0.0,86,0.00,,---,0.00,VWS V14.01,2013-02-17 01:27:00,
2013-02-16 20:32:00,11.8,8.4,30.06,West,260,0.0,0.0,86,0.00,,---,0.00,VWS V14.01,2013-02-17 01:32:00,
2013-02-16 20:37:00,11.7,8.6,30.06,West,260,0.0,0.0,87,0.00,,---,0.00,VWS V14.01,2013-02-17 01:37:00,
2013-02-16 20:42:00,11.6,8.5,30.06,West,260,0.0,0.0,87,0.00,,---,0.00,VWS V14.01,2013-02-17 01:42:00,
2013-02-16 20:47:00,11.6,8.5,30.05,West,260,0.0,0.0,87,0.00,,---,0.00,VWS V14.01,2013-02-17 01:47:00,
2013-02-16 20:52:00,11.4,8.5,30.05,West,260,0.0,0.0,88,0.00,,---,0.00,VWS V14.01,2013-02-17 01:52:00,
2013-02-16 20:57:00,11.4,8.3,30.05,West,260,0.0,0.0,87,0.00,,---,0.00,VWS V14.01,2013-02-17 01:57:00,
2013-02-16 21:02:00,11.3,8.4,30.06,West,260,0.0,0.0,88,0.00,,---,0.00,VWS V14.01,2013-02-17 02:02:00,
2013-02-16 21:07:00,11.2,8.4,30.06,West,260,0.0,0.0,88,0.00,,---,0.00,VWS V14.01,2013-02-17 02:07:00,
2013-02-16 21:12:00,11.0,8.1,30.06,West,260,0.0,0.0,88,0.00,,---,0.00,VWS V14.01,2013-02-17 02:12:00,
2013-02-16 21:17:00,10.9,8.1,30.06,West,260,0.0,0.0,88,0.00,,---,0.00,VWS V14.01,2013-02-17 02:17:00,
2013-02-16 21:22:00,10.9,8.1,30.06,West,260,0.0,0.0,88,0.00,,---,0.00,VWS V14.01,2013-02-17 02:22:00,
2013-02-16 21:27:00,10.8,7.9,30.06,West,260,0.0,0.0,88,0.00,,---,0.00,VWS V14.01,2013-02-17 02:27:00,
2013-02-16 21:32:00,10.8,7.9,30.06,West,260,0.0,0.0,88,0.00,,---,0.00,VWS V14.01,2013-02-17 02:32:00,
2013-02-16 21:37:00,10.7,7.8,30.06,West,260,0.0,0.0,88,0.00,,---,0.00,VWS V14.01,2013-02-17 02:37:00,
2013-02-16 21:42:00,10.6,7.8,30.06,West,260,0.0,0.0,88,0.00,,---,0.00,VWS V14.01,2013-02-17 02:42:00,
2013-02-16 21:47:00,10.5,7.7,30.06,West,260,0.0,0.0,88,0.00,,---,0.00,VWS V14.01,2013-02-17 02:47:00,
2013-02-16 21:52:00,10.4,7.6,30.06,West,260,0.0,0.0,88,0.00,,---,0.00,VWS V14.01,2013-02-17 02:52:00,
2013-02-16 21:57:00,10.4,7.8,30.06,West,260,0.0,0.0,89,0.00,,---,0.00,VWS V14.01,2013-02-17 02:57:00,
2013-02-16 22:02:00,10.4,7.8,30.06,West,260,0.0,0.0,89,0.00,,---,0.00,VWS V14.01,2013-02-17 03:02:00,
2013-02-16 22:06:00,10.4,7.8,30.06,West,260,0.0,0.0,89,0.00,,---,0.00,VWS V14.01,2013-02-17 03:06:00,
2013-02-16 22:11:00,10.3,7.7,30.06,West,260,0.0,0.0,89,0.00,,---,0.00,VWS V14.01,2013-02-17 03:11:00,
2013-02-16 22:16:00,10.3,8.0,30.06,West,260,0.0,0.0,90,0.00,,---,0.00,VWS V14.01,2013-02-17 03:16:00,
2013-02-16 22:21:00,10.3,8.0,30.06,West,260,0.0,0.0,90,0.00,,---,0.00,VWS V14.01,2013-02-17 03:21:00,
2013-02-16 22:26:00,10.3,8.0,30.06,West,260,0.0,0.0,90,0.00,,---,0.00,VWS V14.01,2013-02-17 03:26:00,
2013-02-16 22:31:00,10.4,8.1,30.06,West,260,0.0,0.0,90,0.00,,---,0.00,VWS V14.01,2013-02-17 03:31:00,
2013-02-16 22:36:00,10.4,8.1,30.06,West,260,0.0,0.0,90,0.00,,---,0.00,VWS V14.01,2013-02-17 03:36:00,
2013-02-16 22:41:00,10.7,8.6,30.06,West,260,0.0,1.0,91,0.00,,---,0.00,VWS V14.01,2013-02-17 03:41:00,
2013-02-16 22:46:00,10.9,8.8,30.06,West,260,0.0,0.0,91,0.00,,---,0.00,VWS V14.01,2013-02-17 03:46:00,
2013-02-16 22:51:00,11.4,9.5,30.06,West,260,0.0,0.0,92,0.00,,---,0.00,VWS V14.01,2013-02-17 03:51:00,
2013-02-16 22:56:00,11.8,9.9,30.06,West,260,0.0,0.0,92,0.00,,---,0.00,VWS V14.01,2013-02-17 03:56:00,
2013-02-16 23:01:00,12.2,10.3,30.06,West,260,0.0,0.0,92,0.00,,---,0.00,VWS V14.01,2013-02-17 04:01:00,
2013-02-16 23:06:00,12.6,10.7,30.06,West,260,0.0,0.0,92,0.00,,---,0.00,VWS V14.01,2013-02-17 04:06:00,
2013-02-16 23:11:00,12.9,11.0,30.06,West,260,0.0,0.0,92,0.00,,---,0.00,VWS V14.01,2013-02-17 04:11:00,
2013-02-16 23:16:00,13.1,11.2,30.05,West,260,0.0,0.0,92,0.00,,---,0.00,VWS V14.01,2013-02-17 04:16:00,
2013-02-16 23:21:00,13.3,11.4,30.05,West,260,0.0,0.0,92,0.00,,---,0.00,VWS V14.01,2013-02-17 04:21:00,
2013-02-16 23:26:00,13.4,11.5,30.05,West,260,0.0,0.0,92,0.00,,---,0.00,VWS V14.01,2013-02-17 04:26:00,
2013-02-16 23:31:00,13.5,11.6,30.05,West,260,0.0,0.0,92,0.00,,---,0.00,VWS V14.01,2013-02-17 04:31:00,
2013-02-16 23:36:00,13.6,11.7,30.05,West,260,0.0,1.0,92,0.00,,---,0.00,VWS V14.01,2013-02-17 04:36:00,
2013-02-16 23:41:00,13.7,11.8,30.05,West,260,0.0,0.0,92,0.00,,---,0.00,VWS V14.01,2013-02-17 04:41:00,
2013-02-16 23:46:00,13.6,11.5,30.05,West,260,0.0,0.0,91,0.00,,---,0.00,VWS V14.01,2013-02-17 04:46:00,
2013-02-16 23:51:00,13.7,11.8,30.05,West,260,0.0,1.0,92,0.00,,---,0.00,VWS V14.01,2013-02-17 04:51:00,
2013-02-16 23:56:00,13.8,11.9,30.05,West,260,0.0,1.0,92,0.00,,---,0.00,VWS V14.01,2013-02-17 04:56:00,